This is the latest recevied weather packets stored in our database for station/object N5UKZ-WX. If no packets are shown the sender has not sent any weather packets the latest 10 day(s).
| Time | Temp. | Humidity | Pressure | Rain* | Wind** | Luminosity | Snow |
|---|---|---|---|---|---|---|---|
| 1777686670 | 14.44° C | 100% | 1012.2 hPa | 0 mm | - | - | - |
| 1777685770 | 14.44° C | 100% | 1011.9 hPa | 0 mm | - | - | - |
| 1777684870 | 14.44° C | 100% | 1011.6 hPa | 0 mm | - | - | - |
| 1777683970 | 14.44° C | 100% | 1010.9 hPa | 0 mm | - | - | - |
| 1777683070 | 14.44° C | 100% | 1010.2 hPa | 0 mm | - | - | - |
| 1777682170 | 14.44° C | 100% | 1011.2 hPa | 0 mm | - | - | - |
| 1777681269 | 15.56° C | 100% | 1011.2 hPa | 0 mm | - | - | - |
| 1777680369 | 15° C | 100% | 1011.9 hPa | 0 mm | - | - | - |
| 1777679469 | 14.44° C | 100% | 1012.9 hPa | 0 mm | - | - | - |
| 1777678569 | 14.44° C | 100% | 1011.9 hPa | 0 mm | - | - | - |
| 1777677669 | 14.44° C | 100% | 1011.9 hPa | 0 mm | - | - | - |
| 1777676769 | 15° C | 100% | 1011.9 hPa | 0 mm | - | - | - |
| 1777675868 | 14.44° C | 100% | 1011.9 hPa | 0 mm | - | - | - |
| 1777674968 | 15° C | 100% | 1011.9 hPa | 0 mm | - | - | - |
| 1777674069 | 15° C | 100% | 1012.2 hPa | 0 mm | - | - | - |
| 1777673168 | 15° C | 100% | 1011.6 hPa | 0 mm | - | - | - |
| 1777672268 | 15° C | 100% | 1011.9 hPa | 0 mm | - | - | - |
| 1777671368 | 15° C | 100% | 1012.6 hPa | 0 mm | - | - | - |
| 1777670467 | 15° C | 100% | 1012.9 hPa | 0 mm | - | - | - |
| 1777669567 | 15.56° C | 100% | 1011.2 hPa | 0 mm | - | - | - |
| 1777668667 | 16.11° C | 100% | 1010.2 hPa | 0 mm | - | - | - |
| 1777667767 | 16.11° C | 100% | 1011.6 hPa | 0 mm | - | - | - |
| 1777666867 | 16.11° C | 100% | 1012.2 hPa | 0 mm | - | - | - |
| 1777665966 | 17.22° C | 100% | 1011.6 hPa | 0 mm | - | - | - |
| 1777665066 | 16.11° C | 100% | 1011.6 hPa | 0 mm | - | - | - |
* Rain latest hour (hover to see other rain measurements)
** Current wind speed in m/s (hover to see current wind gust speed)